User: anonymous
Location: Caltech
(34.1382°N, 118.1253°W)
Time: 02:37:51
(UTC-07:00)
Language:

SO-50 - Orbit

View from above orbital plane
View from above orbital plane
View from above satellite
View from above satellite

Ground track
Ground track

The orbit data is extracted from the following two-line orbital elements,

1 27607U 02058C   14110.60876322  .00002929  00000-0  46257-3 0  3665
2 27607 064.5585 047.8538 0040581 030.1410 330.2014 14.73665431608994
Epoch (UTC): 20 April 2014 14:36:37
Eccentricity: 0.0040581
inclination: 64.5585°
perigee height: 621 km
apogee height: 678 km
right ascension of ascending node: 47.8538°
argument of perigee: 30.1410°
revolutions per day: 14.73665431
mean anomaly at epoch: 330.2014°
orbit number at epoch: 60899

The dashed part of the orbit path shows where the satellite is in the earth's shadow,  

DLR